Wind_Speed
104 104 104 104 104 105 105 106 107 107 107 107 106 104 103 102 103 103 104 104 105 105 105 105 105 104 104 104 104 104 104 103 103 103 103 103 102 103 104 105 105 105 105 105 106 107 107 108 109 110 111 112 112 112 113 113 114 113 112 112 112 111 111 110 109 108 109 109 110 112 113 113 112 111 111 112 112 111 111 112 113 114 114 115 115
106 106 107 107 108 108 108 109 110 111 111 112 111 110 108 107 106 106 107 107 108 108 109 109 109 108 107 107 107 107 107 107 108 108 108 107 107 108 108 109 110 110 110 110 111 112 112 113 114 115 116 117 118 118 118 118 119 119 119 118 118 117 117 116 114 113 112 113 114 116 117 118 117 116 116 116 116 116 116 116 117 118 119 119 119
109 109 109 110 111 111 111 112 112 113 114 115 116 116 115 113 111 110 110 110 111 111 111 112 112 112 111 111 111 111 111 112 112 112 112 111 111 112 113 114 114 114 115 115 116 117 117 118 118 120 121 123 123 123 123 123 123 123 124 123 123 123 122 121 120 118 117 117 117 118 120 121 120 120 120 120 120 120 120 120 120 121 121 122 122
113 113 113 113 114 114 114 115 115 115 116 117 118 119 119 118 117 115 114 114 114 114 114 115 115 116 116 116 115 115 115 116 116 116 116 116 116 117 118 118 119 119 119 120 120 121 122 123 124 126 127 128 128 129 129 129 129 129 129 128 127 127 126 126 125 123 121 120 120 121 122 122 122 122 123 122 122 122 121 121 121 121 122 122 123
117 117 117 117 118 118 118 118 118 119 119 119 120 121 122 122 122 120 119 117 117 117 118 119 119 119 119 119 119 119 119 120 121 122 122 122 121 121 122 123 123 124 124 124 125 126 127 128 130 131 132 133 134 134 134 134 134 134 133 131 130 129 129 128 127 125 123 121 120 121 121 122 122 122 123 122 122 121 121 121 121 121 122 122 122
122 122 121 121 121 122 123 123 123 123 124 124 124 125 125 126 127 126 125 123 122 121 121 122 123 123 123 123 123 123 123 124 125 126 127 127 127 127 127 127 128 128 129 129 131 132 133 134 135 136 137 139 138 137 135 133 133 133 131 130 130 129 128 128 127 125 122 119 118 118 119 120 121 121 121 121 121 121 121 121 121 121 122 122 121
128 128 127 127 127 127 128 129 129 129 129 130 130 130 131 132 133 133 131 129 127 126 126 126 126 127 128 128 128 129 129 129 130 130 131 132 133 133 133 133 133 133 133 133 135 136 138 139 140 140 140 138 134 131 129 128 127 127 127 127 126 125 123 122 121 120 118 116 115 115 116 117 118 118 119 120 120 121 121 121 121 121 121 122 121
136 135 134 134 134 135 136 136 136 136 137 138 139 140 140 140 141 141 139 137 135 133 131 131 131 132 133 134 135 136 136 136 137 137 137 138 138 139 139 139 138 137 137 138 139 141 142 143 142 139 135 130 126 124 123 122 121 121 121 121 120 118 116 114 114 113 112 112 111 111 112 113 115 116 117 119 120 121 122 121 120 120 121 122 122
142 141 140 140 140 140 140 141 141 142 142 143 144 145 145 144 144 145 145 144 143 141 140 139 138 138 139 140 141 142 143 143 143 143 143 143 143 143 143 143 141 140 139 138 138 138 137 136 133 129 125 122 120 119 117 115 115 114 114 113 112 111 109 108 108 109 109 109 109 110 111 112 113 115 117 119 121 121 122 121 120 119 120 122 123
140 141 141 141 141 142 141 141 140 139 139 139 138 139 139 139 141 142 143 144 145 144 144 143 142 142 142 143 143 144 144 145 145 145 144 143 143 142 142 140 138 136 133 131 128 127 126 124 122 120 119 118 116 114 111 110 109 109 108 108 108 107 106 106 106 107 108 108 109 110 111 112 113 115 117 119 121 121 121 121 120 120 120 121 122
131 133 135 136 137 137 138 137 136 134 133 132 131 131 132 133 135 136 138 139 139 139 139 138 138 138 139 139 139 139 139 139 139 139 138 137 136 135 135 133 131 129 126 123 121 118 117 117 115 115 115 114 112 110 109 107 107 107 107 107 107 107 108 108 107 107 109 110 111 111 112 112 114 116 118 120 121 122 121 120 119 119 119 120 121
124 125 126 128 129 129 130 131 131 131 130 129 129 129 129 129 130 131 132 133 134 134 134 133 132 132 132 132 133 132 132 131 131 131 131 130 130 129 129 128 127 125 124 122 119 116 114 112 111 111 111 110 109 108 107 107 106 106 107 109 109 110 111 110 109 109 110 111 111 112 113 114 116 118 120 122 123 123 120 118 117 118 119 120 121
120 121 122 123 124 125 126 126 127 128 129 129 129 128 127 127 128 128 129 129 129 130 130 129 129 128 128 128 128 128 128 128 127 127 127 127 126 125 124 124 124 123 122 121 119 117 115 113 111 110 109 108 107 106 106 106 107 108 110 111 112 113 114 113 113 112 112 112 113 114 116 118 120 121 123 124 123 121 119 117 117 119 120 121 120
117 118 119 121 122 124 124 125 125 126 127 128 129 129 128 127 127 127 127 127 127 127 127 127 127 126 126 126 126 125 125 126 126 125 125 125 125 124 122 120 120 120 120 120 119 118 116 115 113 113 112 111 110 108 107 108 109 111 113 115 116 117 117 117 116 116 116 116 116 117 118 120 121 122 123 123 122 121 119 118 119 120 121 121 119
114 115 116 117 119 120 121 123 123 124 125 126 127 128 129 129 128 126 125 125 125 125 125 125 125 125 125 125 124 124 124 124 124 123 123 124 124 123 121 119 118 117 117 117 117 117 116 116 115 115 115 114 113 112 111 111 113 115 116 118 119 120 120 119 119 119 118 119 119 119 119 120 121 122 122 122 121 121 120 120 120 121 121 119 117
112 113 113 114 115 117 118 119 120 122 123 123 124 125 127 128 129 128 127 125 124 123 123 123 123 124 124 124 123 123 123 124 123 122 122 122 123 123 122 120 118 116 115 115 116 116 116 116 116 117 117 116 116 115 115 115 116 118 119 120 121 121 120 120 119 118 117 117 117 118 120 121 122 122 122 122 121 120 120 121 121 121 120 118 116
110 110 109 110 112 114 115 116 117 119 120 121 122 123 124 126 127 128 128 127 125 123 122 121 121 121 122 123 123 123 123 123 123 122 122 122 122 122 122 121 119 116 114 114 114 115 116 116 117 117 117 117 116 116 116 117 119 120 120 121 121 121 121 120 118 117 116 116 116 118 119 121 122 122 122 121 120 119 120 121 121 121 119 117 115
109 108 107 107 109 111 113 114 115 116 117 118 119 121 122 123 125 126 128 128 128 126 123 121 119 119 120 121 122 123 123 124 124 123 122 122 121 121 121 121 121 119 117 115 114 114 115 116 116 116 116 116 116 117 117 118 119 120 121 121 121 120 120 120 120 119 119 119 119 119 120 120 121 121 121 120 119 118 119 120 121 120 119 116 113
108 107 106 106 107 109 110 111 112 113 114 115 116 117 118 120 122 124 125 126 127 128 127 125 122 120 119 119 120 121 121 123 124 124 123 122 121 121 120 120 120 120 120 119 117 116 115 116 117 116 116 116 117 118 118 119 120 120 120 120 119 119 119 120 121 121 121 121 120 120 120 120 120 121 121 121 119 118 118 119 119 118 117 115 113
105 104 104 105 106 107 108 109 110 111 111 112 113 114 115 116 118 120 122 123 124 125 126 127 125 123 121 119 118 119 120 121 123 124 124 123 122 121 120 119 119 120 120 120 120 119 118 118 118 118 118 119 119 120 120 120 121 121 120 119 118 117 118 119 120 120 120 121 121 120 120 120 120 120 120 120 118 117 117 117 116 116 115 114 112
102 102 103 103 104 105 106 107 108 108 108 109 109 110 112 114 115 117 118 120 121 122 123 125 125 125 124 121 119 118 118 119 120 122 123 123 123 122 120 119 119 120 120 120 119 119 120 120 120 120 120 121 121 121 121 121 121 121 120 119 117 117 118 118 119 120 121 121 122 122 121 120 120 119 119 118 117 116 116 116 115 115 114 113 112
99 100 99 100 101 103 104 105 105 105 106 106 106 106 107 109 111 113 114 116 118 119 120 121 123 124 124 124 122 120 118 118 118 120 121 122 123 123 121 120 120 120 120 119 118 118 119 121 122 122 123 122 122 123 123 123 122 121 120 119 118 118 117 117 118 120 121 123 123 123 122 121 120 119 118 118 117 117 116 115 115 114 114 113 112
96 97 97 97 98 99 100 101 101 102 102 103 103 103 103 105 107 108 109 111 113 114 116 117 119 120 121 123 123 123 122 120 118 118 119 121 122 122 122 121 120 120 120 119 119 119 119 120 122 123 124 124 123 123 123 123 122 121 121 121 120 118 118 118 119 121 123 123 123 122 121 120 120 119 119 119 119 118 116 115 115 114 113 113 113
95 95 95 96 97 97 98 98 99 100 100 100 100 100 100 101 103 104 105 106 107 108 110 112 114 115 116 117 119 121 122 122 120 119 118 119 120 121 121 121 121 121 120 119 119 120 120 121 122 123 123 124 123 122 122 122 121 121 121 121 121 120 119 120 121 123 124 123 122 121 121 120 119 119 120 120 119 118 116 116 115 114 113 113 113
94 94 95 95 96 97 97 97 98 99 99 99 99 98 98 99 100 101 102 103 103 103 104 107 109 110 111 112 113 115 117 119 120 119 119 118 118 118 119 120 121 122 121 120 120 121 121 121 122 122 122 122 122 121 121 121 120 121 121 122 122 121 121 121 123 123 123 123 122 122 121 120 120 120 121 120 118 117 116 116 115 114 113 113 114
93 93 94 95 95 96 96 96 96 97 98 98 98 97 97 98 98 99 100 101 102 102 102 102 104 105 106 107 108 110 112 114 116 117 118 118 117 117 117 117 119 120 120 120 121 121 122 122 123 123 122 122 121 120 119 120 121 122 122 122 122 122 121 122 123 123 122 123 123 122 122 121 121 120 120 119 118 117 116 116 115 114 114 114 115
91 91 92 92 93 93 93 93 93 94 96 96 97 96 96 97 97 97 97 99 100 100 100 100 101 102 102 103 104 105 107 109 111 113 116 117 117 117 117 116 117 117 117 117 119 121 123 123 123 123 122 121 121 120 119 120 121 122 122 122 122 121 121 122 123 123 123 123 122 122 121 121 120 119 118 118 118 117 117 116 116 115 115 115 116
88 87 88 89 89 89 90 90 89 90 92 93 94 95 95 96 96 95 95 97 98 98 98 98 98 99 100 100 101 101 102 104 106 109 112 114 115 116 117 116 116 116 116 115 116 118 121 122 122 122 122 121 120 120 120 121 122 122 122 121 121 122 122 122 123 123 122 122 122 121 120 119 118 117 117 117 117 117 117 117 116 116 115 115 116
84 84 84 85 84 84 85 86 86 87 88 89 90 91 92 93 94 93 92 94 95 95 95 95 95 96 97 97 98 98 99 100 103 106 108 110 111 112 114 115 115 115 115 115 114 114 117 118 119 119 119 119 119 119 120 121 122 122 121 121 122 122 122 123 122 122 121 121 120 120 118 117 116 116 116 116 116 116 116 116 116 115 114 115 116
80 81 82 82 81 81 81 82 83 84 85 85 86 87 88 89 90 90 90 91 93 93 92 92 92 94 94 94 94 95 96 97 101 104 105 106 108 109 110 112 113 114 114 114 113 112 113 115 115 115 116 117 117 118 119 120 120 121 121 121 121 122 122 122 121 120 120 119 119 118 116 115 115 115 115 116 116 116 116 116 115 114 114 114 115
78 79 80 80 79 79 78 79 80 82 82 83 84 84 84 85 87 87 86 87 89 90 90 89 89 91 92 91 90 91 92 94 99 102 103 104 105 106 107 108 110 111 113 113 111 109 110 113 114 114 114 115 115 116 116 117 118 119 119 119 119 120 121 120 120 119 118 117 116 115 115 115 115 115 115 116 116 116 116 115 115 114 114 114 115
76 76 77 77 77 77 77 77 78 79 80 81 82 82 82 83 84 84 83 82 83 85 86 86 86 87 88 88 87 88 89 91 95 99 101 101 102 103 104 105 106 108 110 110 108 106 107 109 111 111 112 113 113 114 115 115 116 118 118 118 117 118 119 120 119 118 117 116 115 115 115 115 115 116 116 116 116 116 116 115 115 115 114 114 115
73 74 75 75 74 75 75 75 75 76 77 78 79 79 80 80 80 82 82 80 78 79 80 82 83 83 83 83 83 84 86 88 92 96 98 98 99 99 100 100 101 102 104 105 104 103 104 105 107 108 109 110 112 113 114 114 116 118 118 118 118 118 119 119 118 117 116 116 115 115 115 115 115 116 116 116 116 116 116 116 115 115 115 115 116
71 71 72 72 72 72 72 73 73 74 75 76 76 76 77 77 77 78 79 78 76 75 75 77 78 78 78 79 79 79 81 85 89 92 95 95 96 97 98 97 95 95 96 97 97 98 100 102 103 103 105 107 109 110 111 113 115 117 118 118 118 117 117 117 117 116 116 116 116 115 115 115 115 116 116 116 116 116 116 116 116 115 116 116 117
68 68 69 69 69 69 69 69 70 71 72 73 73 73 74 75 75 75 76 76 75 73 72 71 72 72 72 73 75 77 78 81 84 88 91 92 92 94 95 94 90 89 90 90 91 94 97 99 99 100 101 103 105 107 108 109 111 114 115 115 115 115 115 115 115 114 114 115 115 115 115 115 115 116 116 116 117 117 116 116 116 116 116 117 118
65 65 65 66 66 66 66 66 66 67 68 69 70 70 71 72 73 73 73 73 73 72 70 68 66 66 66 67 71 74 75 77 80 84 87 89 89 90 90 89 88 87 87 87 88 90 93 96 97 98 99 100 102 104 105 106 107 108 109 110 111 111 112 111 110 111 111 112 113 114 114 115 115 115 116 116 116 116 116 116 116 116 117 117 118
63 62 63 63 63 63 63 62 62 63 64 65 66 67 68 69 69 70 70 70 70 69 68 65 63 61 61 62 65 69 72 74 76 78 82 85 86 86 85 85 86 87 86 85 84 86 89 92 95 97 98 99 100 102 104 103 102 103 104 105 106 107 107 107 107 108 110 111 111 112 112 113 114 114 115 115 115 115 115 115 115 116 116 117 117
60 60 60 61 60 60 59 59 59 60 61 61 62 63 64 65 65 66 67 67 67 66 66 64 61 59 58 58 59 63 67 70 71 73 76 79 80 81 82 83 84 85 85 83 82 82 84 88 93 96 98 99 100 101 102 101 99 98 99 100 101 102 103 103 105 106 108 109 109 110 110 111 112 112 112 112 113 113 113 114 114 114 114 115 115
58 57 57 57 57 57 57 57 58 58 58 58 59 59 60 61 61 62 62 63 63 63 63 62 60 58 57 57 56 58 61 64 67 70 72 74 75 77 80 82 81 81 82 81 79 78 80 85 89 94 97 99 99 100 101 100 98 95 94 95 96 98 99 101 102 104 105 106 106 107 108 109 109 110 110 110 110 111 111 111 111 111 112 112 112
56 55 55 54 54 54 54 55 55 55 55 55 56 57 58 58 58 58 58 59 59 60 60 59 58 56 56 56 55 55 57 60 64 67 69 70 71 74 78 79 77 77 77 77 76 77 78 81 86 91 95 98 99 100 100 99 96 92 90 90 92 95 97 99 100 101 101 102 103 105 106 106 107 107 107 108 108 108 108 108 109 109 109 109 108
54 53 53 52 52 52 52 53 53 53 52 53 53 55 55 56 56 56 55 55 56 56 57 57 56 55 55 55 54 54 55 58 61 63 65 67 69 72 74 75 73 73 73 74 75 76 77 79 84 89 94 96 98 98 97 95 92 89 87 87 90 93 97 98 99 98 98 99 101 102 103 103 104 105 105 105 106 106 106 106 106 106 106 106 106
53 52 52 51 51 51 51 51 51 51 50 50 51 52 53 54 54 54 54 53 53 54 54 55 55 54 54 54 54 54 55 57 59 61 62 64 66 68 70 71 70 70 70 71 73 74 76 79 83 87 91 94 95 93 91 88 87 86 85 86 89 92 95 97 97 97 97 98 98 99 100 101 102 102 103 103 104 104 103 103 103 103 104 104 104
51 51 50 50 50 50 50 50 50 50 49 48 48 49 50 51 52 52 52 52 52 52 52 53 53 54 54 54 54 54 55 56 58 59 61 63 64 65 67 67 68 68 68 69 71 73 74 77 80 84 87 89 88 85 84 84 84 84 85 86 88 91 93 95 96 97 97 97 97 98 99 99 99 100 100 100 101 101 101 101 100 100 101 101 101
49 49 49 49 48 48 49 49 49 49 48 47 47 47 48 49 50 50 51 51 51 51 51 51 52 52 53 53 53 53 54 55 56 57 59 61 62 63 64 65 65 66 67 67 69 70 72 74 77 80 82 82 81 80 81 83 84 85 86 87 88 89 90 93 95 96 96 96 96 96 96 96 96 96 97 97 98 98 98 98 98 97 97 98 98
48 47 47 47 47 47 47 47 47 47 47 47 46 46 46 46 47 48 49 49 49 50 50 50 50 51 51 52 52 52 52 53 54 56 57 59 61 62 63 63 64 65 66 66 68 69 71 72 74 75 76 77 78 80 81 82 84 85 86 86 87 88 89 91 93 94 94 94 94 94 94 94 94 94 95 95 96 96 96 96 95 95 95 95 95
46 45 45 45 45 45 45 45 45 46 46 45 45 45 45 45 45 46 47 47 48 49 49 49 49 49 50 50 50 50 51 51 52 54 56 57 59 60 61 62 63 64 65 66 67 68 70 71 72 73 74 76 78 79 81 81 83 83 84 85 86 86 87 89 90 91 92 92 92 92 92 92 92 93 93 94 94 94 95 95 94 94 94 93 93
44 43 43 42 42 43 43 43 44 44 44 44 44 44 44 44 44 44 45 45 46 47 47 48 48 48 48 49 49 49 49 50 51 52 53 55 57 58 60 61 62 63 64 65 67 68 69 70 71 72 73 74 76 77 78 79 80 81 82 83 84 85 86 86 87 88 89 90 90 90 91 91 91 92 92 92 93 93 93 93 93 93 92 92 92
44 43 42 41 40 40 41 41 41 42 42 43 43 43 43 43 43 43 43 43 44 45 45 46 47 47 47 48 48 48 49 49 49 50 51 52 54 56 57 59 60 61 62 64 65 67 68 69 70 71 72 73 73 74 75 76 77 79 80 81 82 83 83 84 85 86 87 88 88 89 90 90 91 91 91 91 91 91 92 92 91 91 90 90 90
43 42 41 40 39 39 39 39 39 40 40 41 41 41 41 42 42 42 42 42 42 42 43 44 45 46 46 46 47 47 48 48 49 49 50 51 52 53 55 56 58 59 61 62 63 65 66 68 69 70 70 71 72 72 73 74 75 77 78 79 80 81 81 82 83 84 85 86 87 88 88 89 90 90 90 90 90 90 90 90 89 89 88 88 88
41 41 40 40 39 38 38 37 37 38 38 38 39 40 40 40 40 40 40 40 41 41 41 42 43 44 44 45 45 46 47 47 48 48 49 50 50 52 53 54 56 57 58 60 61 62 64 65 67 68 69 70 70 71 72 73 74 75 76 77 77 78 79 80 81 82 83 84 85 86 86 87 87 88 88 88 88 88 88 87 87 87 87 87 86
39 39 39 38 38 38 37 37 37 37 37 37 37 38 38 39 39 39 39 39 40 40 40 41 41 42 42 43 43 44 45 46 47 47 48 49 49 50 51 53 54 55 56 57 58 59 61 62 63 65 66 68 69 70 71 71 72 73 74 75 75 76 77 78 79 80 81 82 83 84 84 85 85 85 86 86 86 85 86 86 86 86 86 86 85
Wind_Direction
268 267 266 265 265 265 264 264 264 264 264 263 263 262 262 262 262 262 263 263 263 263 264 264 264 265 265 266 266 267 267 268 269 270 270 269 269 269 269 270 270 271 272 272 273 273 273 273 274 274 274 274 273 273 272 272 272 272 272 272 272 272 272 272 272 272 273 273 273 273 272 273 273 273 273 273 274 274 274 274 275 275 275 276 276
269 267 266 265 264 264 263 264 264 264 264 264 264 263 262 261 261 261 262 262 263 263 263 263 263 264 264 264 265 265 266 267 268 268 269 269 269 269 270 270 270 271 271 271 272 272 272 273 274 274 275 275 275 274 274 274 273 274 274 274 273 273 273 273 273 273 274 274 274 274 274 274 274 274 274 274 274 274 274 275 275 275 275 276 276
270 269 268 267 265 264 263 263 263 263 264 264 264 264 263 262 261 260 260 260 261 261 261 262 262 262 262 262 262 263 264 265 266 267 267 268 268 269 269 270 270 270 270 271 271 271 272 272 273 274 274 275 275 275 275 275 275 275 275 275 274 274 274 274 273 273 274 275 275 275 275 275 275 275 274 274 274 275 275 275 275 275 276 276 276
271 270 269 268 267 267 266 265 264 263 263 264 264 264 264 263 262 261 260 260 259 259 260 261 261 261 261 261 261 261 262 263 264 265 266 266 267 268 268 268 269 269 269 270 270 270 271 271 272 273 273 274 274 275 275 275 275 275 275 274 274 274 274 273 273 273 274 274 275 275 275 274 274 274 274 274 275 275 275 275 276 276 276 276 277
270 269 269 268 267 267 267 266 266 265 264 264 264 265 265 265 264 263 262 261 260 259 259 259 260 260 260 260 260 261 262 263 264 264 265 265 265 266 266 267 267 268 268 269 269 270 270 271 271 272 272 273 274 274 274 275 275 275 274 273 273 273 273 273 273 273 273 273 273 273 273 273 273 273 274 274 274 274 275 275 275 276 276 277 277
271 270 269 268 267 267 266 266 266 266 266 265 264 264 265 266 266 265 264 263 261 260 260 260 260 260 260 260 261 261 262 263 263 264 264 265 265 265 266 266 266 267 267 268 268 269 270 270 271 271 272 274 274 273 273 273 273 273 272 272 272 272 272 273 273 273 273 272 272 272 272 272 273 273 273 274 274 274 274 274 275 276 276 277 277
270 269 269 268 267 267 266 266 265 266 266 265 265 265 265 265 265 265 265 264 263 262 261 261 260 260 261 261 261 262 262 263 263 263 263 264 264 265 265 265 266 267 267 268 268 269 269 270 271 272 273 273 272 271 271 271 270 270 270 270 271 271 272 272 272 272 271 271 270 270 271 271 272 272 273 273 273 274 274 274 275 276 276 277 277
268 268 267 267 267 266 266 266 265 265 265 265 265 265 265 265 264 264 264 264 263 263 262 262 261 261 261 262 263 263 264 264 265 265 265 265 265 265 266 266 266 266 267 267 268 268 269 270 270 271 271 271 270 269 269 268 268 268 268 269 269 270 270 270 270 270 270 269 269 269 269 270 270 271 271 272 273 273 274 275 275 276 277 277 278
267 267 267 267 267 267 267 266 266 266 265 265 265 265 265 264 263 263 262 263 263 263 263 263 263 263 263 263 263 264 265 265 266 266 267 267 267 267 267 268 268 268 268 268 267 267 268 268 269 269 269 268 268 267 267 266 266 266 267 267 267 267 267 267 267 268 268 268 268 268 268 268 269 269 270 271 272 273 274 275 275 276 277 278 278
266 266 266 266 266 267 267 267 267 266 266 266 265 265 264 264 263 263 262 262 262 262 262 262 263 263 263 263 263 264 264 265 266 266 267 267 267 267 268 268 268 268 268 268 268 267 267 266 266 266 266 266 265 265 264 264 264 264 264 264 264 264 264 264 265 265 265 266 266 267 267 267 267 268 269 270 271 272 273 274 275 276 277 277 278
264 264 264 265 265 265 266 266 266 266 266 266 265 265 264 264 263 263 263 263 263 263 263 263 262 262 262 262 262 263 263 263 264 264 265 265 265 266 267 267 267 267 267 266 266 266 265 265 264 263 263 263 262 262 261 261 261 262 262 261 261 262 262 262 263 263 263 264 265 266 266 266 266 267 268 269 270 271 272 273 274 275 276 276 278
262 262 262 263 263 263 264 264 265 265 265 265 265 265 265 264 264 264 263 263 264 264 264 264 263 263 262 262 262 262 262 262 262 262 263 263 263 263 264 264 264 264 264 264 263 263 262 262 261 261 260 260 259 259 259 259 259 259 259 259 260 260 261 261 262 262 262 263 264 265 265 265 266 266 267 268 269 271 272 273 273 274 275 276 278
261 261 261 262 262 262 262 262 263 263 264 265 265 265 265 265 265 264 264 264 264 264 264 264 264 263 263 263 262 262 262 263 262 262 262 262 262 262 261 261 262 262 261 261 261 260 260 259 259 258 257 257 256 256 256 256 256 257 257 258 259 259 260 261 261 262 262 263 264 264 265 265 265 266 267 269 270 271 272 273 273 274 275 276 277
260 260 260 260 260 260 260 260 261 261 262 262 263 264 264 264 263 263 264 264 264 264 264 264 264 263 263 263 263 262 262 262 262 262 262 262 262 261 260 260 260 259 259 259 259 259 258 258 257 256 255 255 254 254 253 253 254 254 255 256 258 259 260 260 261 262 263 263 264 264 264 264 265 266 267 269 270 272 272 273 273 274 275 275 277
260 260 259 259 259 259 259 259 259 260 260 260 261 262 262 263 263 263 262 262 262 263 263 263 264 263 263 263 263 262 262 262 261 261 262 262 262 262 261 259 258 258 258 257 257 257 257 256 256 255 255 254 254 253 252 251 251 252 254 255 257 258 259 260 261 262 263 263 263 263 263 264 265 266 267 269 270 272 273 273 274 274 275 276 277
261 260 260 259 259 259 258 258 258 258 259 259 259 260 260 261 262 263 263 262 262 261 261 262 262 263 263 263 262 262 262 261 261 261 261 261 261 261 261 261 259 257 257 256 256 256 255 255 254 254 254 254 254 254 253 252 252 253 254 255 256 258 259 260 261 262 263 263 263 263 263 264 265 266 267 269 270 272 273 274 275 275 276 276 277
263 261 260 260 259 259 259 258 258 258 258 258 258 258 259 259 260 261 262 263 263 262 261 261 261 261 262 262 262 262 261 261 261 260 260 260 260 260 260 261 260 259 257 256 255 255 255 255 254 254 254 254 254 254 254 254 254 254 254 255 257 258 259 260 261 262 263 263 263 263 264 265 266 267 268 269 271 272 273 274 275 276 276 277 277
265 264 263 262 261 260 260 260 259 258 258 258 257 257 257 258 258 259 260 261 262 263 262 262 261 260 260 261 261 262 262 261 261 260 260 259 259 259 259 259 260 260 259 258 256 256 256 256 256 255 255 254 254 254 254 254 255 255 256 256 257 258 259 260 262 263 263 264 265 265 265 266 267 268 269 270 271 272 273 273 274 275 276 277 277
267 266 266 265 264 263 262 261 260 260 259 259 258 258 257 257 257 258 258 259 260 261 262 262 262 261 260 259 260 260 261 261 261 261 260 259 259 258 258 258 258 259 259 259 258 257 256 256 256 257 256 256 255 255 255 256 256 257 257 258 258 259 260 261 262 262 263 265 266 266 267 267 268 269 270 271 272 272 273 273 274 275 276 277 278
269 269 268 267 266 265 264 263 262 261 260 259 259 259 258 258 257 257 257 257 258 259 260 261 262 262 261 259 259 259 259 259 260 261 261 260 260 259 258 258 258 257 257 258 258 258 258 258 257 257 257 257 257 257 257 257 258 258 259 260 260 261 262 262 263 264 265 266 267 267 267 267 268 269 270 271 272 273 273 274 274 275 276 277 277
271 270 270 269 268 268 267 266 265 263 262 261 259 259 258 258 257 257 257 257 257 257 258 259 260 261 261 261 259 258 258 258 258 259 260 260 260 260 259 258 258 257 257 257 257 257 258 258 258 258 257 257 258 258 259 259 259 260 260 261 261 262 262 263 264 265 266 266 267 267 268 268 269 269 270 271 272 273 273 274 274 274 275 275 276
272 271 271 270 269 268 268 267 266 266 265 264 262 261 260 259 258 257 257 257 257 257 257 257 258 259 260 260 261 260 258 257 257 257 258 258 259 259 259 259 258 257 257 257 257 257 257 257 258 258 258 258 258 258 259 260 261 261 262 263 263 263 264 264 264 265 265 266 266 267 268 269 270 270 271 272 272 273 273 273 273 274 274 275 275
272 271 271 270 269 269 268 267 267 266 265 265 264 263 262 261 260 259 258 257 257 257 256 256 256 257 257 258 259 260 260 259 257 256 256 256 257 258 258 258 258 257 257 257 257 257 256 256 256 257 257 258 258 258 259 260 261 262 262 263 264 264 265 265 265 265 266 266 267 268 269 269 270 271 271 271 272 272 273 273 273 273 274 274 275
272 272 271 270 270 269 268 268 267 267 266 265 264 263 262 262 261 261 260 259 258 257 257 256 256 256 256 256 257 258 259 259 259 258 256 255 255 256 257 257 257 257 257 257 256 256 256 256 256 256 256 257 258 259 259 260 261 261 262 263 263 264 264 264 265 265 265 266 267 268 269 269 270 270 270 270 271 271 272 272 273 273 274 274 275
272 272 271 271 270 270 269 268 268 267 267 266 265 264 263 262 261 261 260 260 259 258 257 256 256 256 256 255 255 255 256 257 258 259 258 257 256 255 255 255 256 256 257 257 256 256 256 256 256 256 257 257 258 258 259 260 260 261 261 261 262 263 263 263 264 264 265 266 267 267 268 268 268 268 268 269 270 271 272 272 273 273 274 274 274
272 272 271 271 270 270 269 269 268 268 268 267 266 265 264 263 262 261 260 260 260 259 257 257 256 256 256 255 255 254 255 255 256 257 257 258 257 257 256 255 255 255 255 255 256 256 257 257 257 257 257 257 258 258 258 258 259 259 259 260 260 261 262 262 263 263 264 264 265 266 266 266 267 267 268 269 270 271 271 272 272 272 273 273 273
272 272 271 271 270 269 269 268 267 267 267 267 266 266 265 264 263 262 261 260 260 259 258 257 256 256 256 255 255 254 254 254 254 255 255 256 257 257 256 256 255 254 254 254 254 255 256 256 257 257 257 258 258 258 258 258 258 259 259 260 260 261 261 262 262 263 263 264 264 265 265 266 267 267 268 268 269 269 270 270 271 271 272 272 273
273 272 271 271 270 270 269 268 267 267 266 266 265 265 265 264 263 263 262 261 260 260 259 258 257 257 256 256 255 254 254 253 253 254 254 254 255 255 256 256 256 256 255 254 253 253 254 255 256 257 257 258 258 258 258 258 259 259 260 260 261 261 261 261 262 263 263 264 265 265 265 266 267 267 268 268 268 269 270 270 271 271 272 272 273
275 274 273 273 272 271 270 270 269 268 267 266 265 265 265 264 264 264 263 262 262 261 260 259 258 257 256 256 255 255 255 254 254 253 253 253 254 254 254 255 256 256 256 255 254 253 253 254 254 255 256 257 257 257 258 258 259 259 260 260 261 261 262 262 262 263 264 264 265 265 266 266 267 267 268 268 269 269 270 270 271 272 272 273 273
277 276 275 274 273 272 271 270 270 269 268 267 266 265 265 264 264 264 263 262 262 262 261 260 260 259 258 256 255 255 254 254 254 254 253 253 253 253 253 254 254 255 255 256 256 255 254 254 254 255 255 255 256 256 256 257 258 259 259 260 260 261 262 262 263 263 264 264 265 266 267 267 268 268 269 269 270 270 271 272 272 273 273 274 274
277 276 275 274 273 272 271 270 269 269 268 267 267 266 266 265 264 264 262 261 262 262 261 260 259 259 259 258 257 255 254 253 253 254 254 253 253 253 253 253 253 254 255 256 256 255 254 254 255 255 255 255 256 256 256 257 257 258 259 259 260 260 261 262 262 263 264 264 265 266 267 268 268 269 269 270 270 271 272 272 273 274 274 275 275
277 276 275 274 274 273 272 271 270 269 268 268 267 267 266 266 265 265 263 262 261 261 261 261 259 258 258 258 258 257 256 254 253 253 254 254 254 253 253 253 253 253 254 256 256 256 255 255 255 255 256 256 256 256 257 257 258 258 259 259 260 260 261 262 263 263 264 265 266 266 267 267 268 268 269 270 270 271 272 272 273 273 274 274 275
277 276 275 275 274 273 273 272 271 270 269 268 268 268 267 267 266 266 266 264 262 261 260 260 259 259 258 258 257 256 255 255 254 254 255 255 255 255 254 254 253 253 254 255 256 257 256 255 255 255 256 256 256 256 257 257 257 258 259 259 259 260 261 262 263 264 264 265 265 266 266 266 267 268 268 269 270 270 271 272 272 273 274 274 275
277 276 275 275 274 274 273 272 271 271 270 269 269 268 268 268 267 267 267 267 265 262 260 259 259 259 259 258 257 255 253 253 254 254 255 256 256 256 256 256 255 255 255 256 256 256 256 256 256 256 256 256 256 256 256 256 257 257 258 259 260 260 261 262 263 263 264 265 265 266 266 266 267 267 268 269 269 270 270 271 272 273 273 274 275
278 277 276 276 275 274 273 272 271 271 270 270 270 269 269 269 268 268 268 268 267 265 263 261 259 258 257 257 257 255 253 252 252 253 255 255 256 256 257 258 258 258 257 256 256 255 256 256 256 256 256 256 256 257 256 256 256 256 257 259 260 260 261 262 262 263 264 264 265 266 266 266 267 267 268 268 269 270 270 271 272 272 273 273 274
279 278 278 277 275 274 273 273 272 271 271 270 270 269 269 269 269 269 268 268 268 268 266 264 261 259 257 256 256 256 255 253 252 253 254 255 255 256 257 259 259 259 258 257 255 255 255 256 257 257 257 257 257 257 257 257 256 257 258 258 259 260 261 262 263 263 264 264 265 265 266 266 267 268 268 269 269 270 271 271 272 272 273 273 274
281 280 279 278 277 276 276 275 273 272 271 270 269 268 268 268 268 268 269 269 269 269 268 267 264 261 258 256 255 255 255 254 254 253 254 255 256 257 257 258 258 258 258 257 256 255 254 255 256 257 257 257 257 257 258 258 257 257 258 259 259 260 261 262 262 263 264 264 265 265 266 266 267 267 268 269 269 270 271 271 272 272 272 273 274
282 281 280 279 279 278 277 276 274 272 271 270 269 269 268 267 267 267 268 268 268 268 268 268 266 263 260 257 254 253 254 254 254 254 254 255 256 256 256 256 256 256 257 256 255 254 253 253 254 255 256 256 256 257 258 258 258 258 258 258 259 260 260 261 262 262 263 264 265 265 266 266 267 268 268 269 269 270 271 271 271 272 272 273 274
282 281 281 280 279 278 277 276 274 273 272 272 271 270 269 268 267 267 267 267 267 267 267 267 266 264 262 259 256 253 253 253 253 253 253 254 254 254 255 254 254 255 255 255 255 254 253 252 253 254 255 256 256 257 257 258 258 258 258 258 259 259 260 260 261 262 262 263 264 265 266 266 267 268 268 269 269 270 270 271 271 272 272 273 274
284 283 282 281 280 278 277 276 275 274 273 273 272 271 270 270 269 268 267 267 266 266 266 266 265 264 262 260 257 255 253 252 252 251 252 252 252 252 253 254 254 254 254 254 254 253 252 251 251 252 253 255 255 256 257 257 258 258 259 259 260 260 261 261 261 262 262 263 263 264 265 266 267 267 268 269 269 270 270 271 271 272 273 273 274
284 283 282 281 280 279 278 276 275 274 273 272 272 271 271 271 270 269 268 267 266 266 265 265 264 263 262 260 258 256 253 252 251 251 251 251 251 251 252 253 254 253 253 253 252 251 250 249 249 250 251 253 254 255 256 258 259 260 260 260 260 260 261 262 262 262 263 263 263 264 264 265 266 267 267 268 269 270 270 271 271 272 273 274 275
285 284 283 282 281 280 278 277 276 275 273 272 271 271 271 270 270 270 269 268 267 265 265 264 264 263 261 260 258 256 254 252 251 250 250 250 250 250 251 252 252 252 251 251 251 250 249 248 249 250 251 253 255 257 259 260 262 262 262 261 260 260 261 262 263 263 264 264 264 264 265 265 266 266 267 268 268 269 270 271 271 272 273 274 275
285 284 284 283 282 280 279 278 277 276 274 273 272 270 270 270 269 269 269 268 267 266 265 264 263 262 261 259 258 256 254 253 252 251 251 250 250 250 250 251 251 251 250 250 250 249 249 249 249 251 252 255 257 259 261 262 263 262 261 260 259 259 260 261 262 263 263 263 264 264 264 265 265 266 267 267 268 269 270 270 271 272 272 273 274
285 285 284 283 282 281 280 279 278 277 276 274 272 271 270 269 269 269 268 267 266 265 264 263 263 262 261 260 258 257 255 254 253 252 251 251 251 250 250 250 250 250 249 249 249 249 249 249 249 251 253 255 257 258 259 259 259 259 258 258 258 258 258 259 260 261 262 263 263 264 264 265 265 266 267 268 268 269 270 270 271 271 272 272 273
285 285 284 283 283 282 281 280 279 278 276 275 273 272 271 269 269 268 268 267 266 265 264 263 262 262 261 260 259 258 256 254 253 252 251 250 250 250 250 249 249 248 248 248 248 248 248 249 249 250 251 252 253 254 254 254 254 255 255 256 256 257 257 258 259 260 261 262 263 263 264 265 266 266 267 268 268 269 270 271 271 272 272 272 272
286 285 285 284 283 282 281 281 280 278 277 276 274 273 271 270 269 268 267 267 266 265 264 263 262 261 261 260 259 258 257 256 254 253 251 250 250 250 249 249 248 247 247 247 247 247 247 248 248 248 248 249 249 250 251 252 252 253 254 255 256 256 257 257 258 259 261 262 263 263 264 265 266 266 267 268 268 269 270 270 271 271 271 272 272
287 287 286 285 284 283 282 281 280 280 279 277 276 274 273 271 270 268 267 267 266 265 264 264 263 262 261 260 259 258 257 256 255 253 252 251 251 250 250 249 248 248 247 246 246 246 247 247 248 248 248 248 249 250 250 251 252 253 254 255 255 256 257 258 259 260 261 262 263 264 264 265 266 266 267 267 268 269 269 270 270 270 271 271 272
289 289 288 286 285 284 283 282 281 280 279 278 277 276 275 273 271 270 268 267 266 265 264 264 263 262 261 260 259 258 257 256 255 254 252 252 251 251 250 250 249 249 248 247 246 247 247 248 248 248 249 249 250 250 251 251 252 253 254 254 255 256 257 258 258 259 260 261 262 263 264 265 266 266 267 267 268 268 269 269 270 270 270 271 272
291 291 290 289 287 286 284 283 282 281 280 279 278 277 276 274 273 271 269 268 266 265 264 263 263 262 261 260 259 258 257 256 255 254 252 251 250 250 250 250 250 249 249 248 247 247 247 247 248 248 249 249 250 250 251 251 252 252 253 254 255 255 256 257 258 259 259 260 261 262 263 263 264 265 266 266 267 267 268 269 269 270 271 271 272
291 291 291 290 289 288 286 285 283 281 280 279 278 277 276 275 274 272 271 269 267 265 264 263 262 261 261 260 259 258 258 257 256 254 253 252 251 250 249 249 249 250 249 249 249 249 248 248 248 249 249 249 250 250 250 251 251 252 253 253 254 255 255 256 257 258 258 259 260 260 261 262 263 264 265 266 267 267 268 269 270 270 271 271 272
291 290 290 290 290 289 288 286 285 283 281 280 278 277 276 275 273 272 271 269 267 265 264 263 262 261 260 260 259 258 257 257 256 255 254 253 252 250 249 249 249 249 249 249 249 249 249 249 249 250 250 250 251 251 251 252 252 253 253 254 255 255 256 256 257 258 258 259 259 260 261 262 263 264 265 266 267 267 268 268 269 269 270 271 271
Height
10499 10500 10500 10500 10500 10499 10498 10498 10498 10497 10498 10498 10499 10500 10502 10503 10503 10503 10503 10503 10502 10501 10501 10500 10499 10500 10500 10500 10500 10500 10499 10499 10499 10499 10500 10502 10502 10502 10501 10500 10500 10502 10503 10502 10502 10502 10502 10502 10502 10502 10500 10500 10501 10502 10503 10502 10502 10504 10506 10506 10506 10506 10505 10506 10509 10511 10509 10507 10507 10507 10506 10507 10508 10508 10508 10508 10508 10508 10507 10506 10504 10502 10502 10501 10500
10480 10481 10481 10481 10481 10481 10481 10481 10480 10479 10479 10479 10480 10482 10484 10486 10487 10488 10488 10487 10486 10486 10485 10484 10484 10484 10485 10485 10485 10484 10484 10484 10483 10483 10485 10486 10487 10487 10486 10486 10486 10488 10489 10489 10488 10487 10487 10488 10488 10487 10485 10485 10486 10487 10487 10487 10487 10489 10490 10490 10490 10490 10489 10490 10492 10495 10495 10493 10491 10490 10489 10490 10491 10491 10491 10492 10492 10492 10492 10490 10489 10487 10486 10486 10485
10462 10462 10462 10461 10461 10462 10462 10463 10462 10461 10460 10460 10460 10461 10463 10467 10469 10470 10471 10470 10470 10470 10469 10469 10469 10469 10469 10469 10468 10468 10468 10468 10468 10468 10469 10470 10471 10472 10472 10471 10471 10473 10474 10474 10473 10472 10472 10473 10474 10473 10470 10470 10471 10471 10472 10473 10473 10474 10474 10473 10474 10473 10471 10472 10475 10479 10480 10479 10477 10475 10473 10473 10474 10474 10474 10475 10474 10474 10475 10474 10473 10471 10470 10469 10469
10443 10444 10444 10443 10442 10442 10443 10443 10443 10443 10442 10440 10439 10439 10440 10444 10448 10450 10452 10453 10453 10454 10453 10453 10453 10453 10453 10452 10451 10451 10451 10451 10452 10453 10454 10455 10456 10456 10456 10456 10457 10458 10458 10459 10458 10456 10457 10458 10459 10458 10455 10454 10456 10457 10458 10459 10459 10459 10458 10458 10458 10457 10456 10455 10458 10462 10465 10465 10462 10459 10458 10457 10458 10458 10457 10457 10458 10457 10457 10457 10456 10454 10453 10452 10452
10424 10425 10426 10426 10425 10424 10423 10423 10423 10423 10423 10422 10421 10419 10419 10420 10423 10427 10431 10433 10435 10436 10436 10436 10435 10436 10436 10435 10434 10434 10434 10434 10434 10435 10436 10437 10438 10439 10439 10440 10441 10442 10443 10443 10442 10441 10441 10442 10442 10441 10439 10439 10442 10444 10444 10444 10443 10442 10442 10442 10441 10441 10440 10440 10442 10446 10450 10451 10448 10444 10443 10442 10442 10442 10441 10441 10442 10441 10441 10441 10440 10438 10437 10436 10436
10404 10405 10406 10407 10407 10405 10405 10404 10403 10403 10403 10403 10403 10402 10401 10400 10400 10402 10407 10411 10414 10416 10417 10417 10417 10417 10417 10417 10417 10417 10417 10417 10417 10417 10417 10418 10419 10420 10421 10423 10424 10426 10427 10427 10426 10425 10425 10425 10424 10423 10423 10425 10428 10429 10428 10428 10426 10425 10425 10425 10424 10425 10425 10425 10426 10429 10432 10434 10433 10430 10428 10427 10426 10428 10427 10425 10425 10426 10426 10425 10425 10423 10422 10421 10421
10383 10384 10384 10385 10386 10386 10386 10385 10385 10384 10383 10382 10383 10383 10383 10382 10380 10380 10382 10386 10390 10393 10396 10397 10398 10398 10398 10398 10398 10398 10399 10400 10400 10399 10399 10400 10400 10400 10402 10404 10406 10408 10409 10410 10409 10408 10408 10408 10407 10407 10408 10410 10412 10412 10412 10411 10410 10409 10409 10409 10409 10410 10411 10411 10411 10413 10415 10417 10418 10416 10414 10413 10412 10413 10412 10410 10409 10410 10410 10410 10410 10409 10408 10406 10406
10362 10362 10362 10363 10363 10363 10363 10364 10365 10365 10364 10363 10362 10361 10361 10361 10360 10359 10360 10363 10366 10370 10372 10375 10377 10378 10379 10379 10379 10378 10379 10380 10380 10379 10380 10380 10381 10381 10382 10384 10387 10390 10392 10393 10392 10391 10391 10391 10391 10391 10392 10394 10395 10395 10394 10394 10393 10393 10394 10394 10395 10396 10397 10397 10397 10397 10398 10400 10402 10402 10401 10400 10399 10399 10398 10396 10394 10394 10394 10394 10396 10395 10393 10390 10390
10339 10339 10339 10339 10339 10339 10339 10339 10339 10340 10341 10341 10340 10339 10338 10337 10337 10337 10338 10340 10343 10347 10350 10352 10354 10356 10357 10358 10359 10360 10360 10360 10359 10359 10359 10359 10359 10360 10361 10362 10365 10368 10370 10373 10374 10374 10375 10375 10376 10376 10376 10376 10376 10377 10378 10379 10379 10379 10380 10380 10379 10380 10382 10383 10383 10383 10384 10385 10387 10387 10386 10386 10385 10384 10384 10382 10380 10379 10380 10379 10380 10380 10378 10375 10373
10317 10316 10316 10316 10316 10316 10315 10314 10314 10314 10315 10316 10316 10316 10315 10313 10313 10313 10314 10316 10319 10322 10326 10330 10332 10334 10336 10336 10337 10339 10340 10340 10339 10338 10339 10339 10338 10339 10340 10341 10344 10346 10348 10351 10353 10354 10356 10358 10361 10361 10360 10359 10360 10361 10363 10365 10365 10365 10365 10364 10364 10366 10368 10369 10370 10370 10370 10370 10371 10371 10371 10372 10371 10369 10369 10369 10367 10366 10366 10365 10364 10365 10364 10361 10358
10297 10296 10295 10294 10294 10294 10293 10292 10291 10291 10291 10291 10292 10292 10293 10293 10292 10292 10292 10293 10294 10297 10300 10305 10309 10311 10314 10315 10316 10318 10320 10321 10319 10319 10320 10321 10320 10320 10321 10323 10324 10328 10330 10332 10333 10335 10337 10340 10343 10344 10343 10345 10347 10347 10348 10350 10351 10350 10349 10349 10350 10352 10352 10354 10356 10357 10356 10357 10356 10355 10357 10358 10356 10353 10354 10354 10353 10352 10353 10353 10351 10350 10349 10346 10343
10277 10277 10277 10276 10275 10275 10274 10273 10271 10269 10269 10270 10270 10270 10270 10271 10271 10271 10272 10273 10274 10275 10276 10280 10283 10286 10289 10293 10295 10297 10299 10299 10299 10299 10300 10302 10303 10304 10305 10306 10307 10310 10314 10316 10317 10318 10320 10322 10325 10326 10328 10330 10332 10332 10334 10336 10337 10336 10334 10335 10336 10337 10338 10340 10342 10343 10343 10343 10342 10342 10342 10342 10340 10339 10338 10337 10337 10338 10340 10341 10339 10336 10334 10331 10328
10258 10258 10257 10256 10256 10256 10255 10255 10254 10252 10250 10249 10249 10250 10250 10250 10250 10250 10250 10252 10253 10255 10256 10257 10260 10263 10266 10269 10273 10275 10277 10277 10277 10279 10280 10281 10283 10285 10287 10289 10291 10294 10297 10299 10301 10302 10304 10306 10308 10310 10312 10313 10314 10318 10320 10321 10322 10321 10319 10320 10322 10323 10324 10325 10327 10328 10330 10330 10329 10329 10328 10325 10323 10324 10324 10322 10323 10325 10327 10327 10325 10323 10321 10317 10314
10238 10238 10238 10237 10235 10235 10235 10236 10236 10235 10234 10231 10229 10229 10229 10230 10231 10230 10231 10232 10232 10234 10235 10236 10239 10241 10244 10246 10250 10254 10256 10256 10256 10258 10259 10259 10260 10263 10267 10272 10274 10277 10280 10282 10284 10286 10288 10290 10291 10293 10295 10295 10298 10303 10305 10305 10306 10305 10304 10305 10307 10308 10309 10311 10313 10314 10315 10315 10315 10314 10312 10309 10309 10310 10310 10309 10310 10311 10311 10311 10310 10309 10306 10304 10302
10217 10217 10218 10218 10217 10216 10216 10216 10216 10216 10216 10214 10213 10211 10210 10209 10209 10209 10212 10214 10214 10215 10216 10217 10218 10220 10222 10225 10229 10233 10234 10234 10235 10238 10239 10239 10239 10241 10246 10252 10256 10259 10263 10265 10268 10269 10271 10272 10274 10276 10277 10278 10281 10285 10288 10289 10288 10288 10288 10290 10292 10293 10295 10297 10298 10299 10300 10299 10298 10298 10297 10295 10294 10296 10297 10297 10297 10297 10296 10295 10293 10293 10291 10290 10290
10196 10196 10199 10200 10198 10197 10197 10197 10197 10196 10195 10195 10195 10195 10193 10192 10190 10188 10190 10192 10195 10197 10199 10200 10201 10201 10202 10204 10207 10212 10214 10213 10214 10218 10220 10221 10221 10222 10226 10231 10236 10242 10245 10248 10251 10253 10253 10255 10257 10258 10260 10262 10264 10266 10270 10271 10270 10271 10273 10275 10276 10278 10280 10282 10283 10284 10285 10284 10283 10284 10282 10279 10279 10281 10283 10283 10284 10284 10283 10280 10276 10276 10275 10275 10276
10172 10174 10179 10181 10179 10177 10177 10178 10177 10177 10176 10176 10176 10177 10176 10175 10174 10171 10170 10171 10173 10175 10178 10182 10184 10185 10185 10185 10186 10190 10195 10194 10194 10198 10200 10201 10203 10206 10209 10211 10215 10221 10227 10230 10233 10235 10236 10238 10240 10242 10245 10246 10247 10248 10250 10252 10252 10254 10257 10259 10261 10264 10266 10266 10266 10268 10269 10268 10268 10268 10266 10264 10264 10267 10268 10269 10270 10271 10271 10267 10263 10260 10260 10261 10262
10149 10153 10159 10160 10159 10157 10157 10157 10158 10158 10158 10158 10158 10159 10159 10158 10157 10156 10155 10155 10155 10155 10157 10162 10166 10168 10170 10170 10169 10170 10174 10175 10175 10177 10181 10182 10184 10189 10192 10194 10197 10201 10205 10209 10213 10216 10220 10221 10223 10226 10230 10231 10231 10231 10232 10234 10235 10237 10240 10243 10246 10250 10252 10250 10249 10251 10252 10251 10251 10251 10250 10249 10250 10251 10253 10254 10256 10258 10258 10254 10249 10246 10246 10247 10247
10130 10135 10138 10138 10137 10136 10136 10136 10136 10137 10139 10139 10139 10141 10142 10141 10141 10139 10139 10140 10140 10139 10139 10141 10146 10150 10152 10154 10155 10155 10158 10159 10156 10157 10161 10163 10166 10170 10174 10178 10182 10185 10186 10188 10191 10196 10202 10204 10205 10209 10212 10214 10214 10214 10216 10217 10218 10221 10223 10226 10231 10236 10237 10233 10232 10234 10235 10234 10234 10234 10234 10235 10236 10237 10239 10238 10240 10244 10243 10238 10236 10234 10233 10232 10232
10113 10115 10116 10116 10115 10114 10113 10113 10114 10115 10117 10119 10120 10121 10122 10122 10122 10121 10121 10122 10124 10124 10124 10123 10125 10129 10132 10134 10138 10140 10142 10143 10142 10140 10142 10144 10147 10151 10156 10161 10166 10168 10168 10170 10174 10178 10182 10185 10188 10191 10193 10194 10196 10197 10199 10200 10202 10204 10206 10210 10217 10220 10218 10215 10216 10217 10218 10218 10219 10219 10219 10221 10222 10224 10224 10222 10224 10227 10226 10223 10222 10221 10219 10219 10218
10097 10096 10096 10096 10094 10092 10090 10089 10090 10092 10094 10096 10099 10101 10101 10101 10102 10103 10102 10103 10105 10107 10109 10108 10107 10109 10111 10113 10117 10122 10125 10127 10128 10126 10126 10127 10128 10131 10137 10144 10148 10148 10149 10154 10160 10163 10165 10166 10168 10171 10172 10174 10177 10179 10181 10183 10186 10188 10191 10196 10202 10201 10198 10200 10202 10202 10202 10204 10203 10203 10204 10206 10207 10208 10208 10207 10208 10210 10209 10208 10208 10206 10204 10204 10204
10079 10077 10078 10077 10074 10071 10069 10068 10069 10070 10071 10073 10075 10080 10082 10081 10081 10083 10084 10083 10085 10087 10090 10092 10091 10093 10094 10093 10095 10100 10103 10107 10111 10112 10111 10111 10111 10113 10118 10126 10129 10130 10133 10139 10144 10147 10148 10148 10150 10151 10151 10154 10158 10161 10163 10166 10169 10173 10177 10180 10181 10181 10182 10185 10186 10185 10186 10187 10187 10187 10190 10191 10191 10192 10192 10191 10191 10192 10193 10194 10192 10191 10189 10189 10188
10058 10058 10058 10056 10054 10052 10050 10049 10050 10050 10051 10052 10053 10058 10062 10060 10059 10061 10063 10064 10066 10068 10071 10073 10073 10076 10079 10078 10077 10079 10081 10084 10090 10094 10095 10095 10095 10096 10101 10107 10110 10112 10117 10123 10126 10128 10130 10132 10133 10133 10133 10135 10141 10144 10147 10150 10153 10158 10161 10161 10161 10163 10166 10168 10168 10169 10170 10170 10171 10174 10175 10175 10175 10175 10175 10175 10175 10175 10177 10178 10176 10175 10175 10174 10172
10040 10040 10039 10036 10035 10033 10032 10032 10032 10030 10031 10032 10034 10038 10041 10040 10039 10039 10040 10042 10046 10049 10051 10052 10053 10056 10060 10061 10062 10063 10063 10063 10066 10072 10076 10078 10080 10082 10085 10088 10091 10093 10098 10105 10108 10109 10112 10114 10115 10116 10117 10120 10124 10128 10131 10134 10138 10142 10145 10144 10143 10147 10151 10152 10152 10153 10153 10155 10158 10160 10160 10159 10159 10158 10158 10158 10159 10161 10162 10161 10161 10161 10161 10160 10157
10024 10023 10021 10018 10017 10015 10014 10015 10014 10012 10011 10013 10015 10019 10021 10020 10021 10021 10020 10021 10025 10029 10032 10033 10033 10035 10039 10043 10046 10048 10048 10047 10047 10050 10053 10057 10061 10066 10069 10071 10073 10075 10079 10086 10089 10090 10094 10096 10097 10099 10102 10105 10109 10113 10115 10119 10122 10125 10128 10128 10128 10131 10136 10137 10136 10137 10140 10142 10143 10143 10143 10143 10142 10141 10142 10143 10145 10147 10147 10145 10146 10146 10146 10145 10142
10007 10006 10003 10002 10000 9998 9997 9999 9998 9995 9994 9995 9996 9999 10001 10001 10002 10003 10003 10002 10004 10008 10011 10013 10014 10016 10019 10023 10027 10030 10031 10032 10032 10032 10033 10035 10040 10045 10048 10051 10053 10056 10061 10069 10072 10073 10076 10078 10079 10082 10085 10088 10092 10096 10101 10105 10106 10106 10110 10113 10113 10116 10121 10122 10121 10123 10126 10125 10125 10126 10126 10126 10126 10126 10128 10130 10131 10131 10131 10130 10131 10131 10131 10130 10127
9990 9990 9987 9984 9983 9982 9981 9982 9982 9980 9978 9978 9978 9980 9981 9981 9981 9984 9985 9984 9985 9987 9991 9994 9996 9998 10001 10004 10007 10011 10013 10015 10016 10017 10016 10017 10020 10023 10025 10028 10033 10038 10044 10053 10057 10057 10057 10058 10060 10063 10067 10071 10075 10080 10085 10088 10088 10089 10094 10098 10099 10101 10106 10106 10105 10106 10108 10107 10108 10110 10110 10110 10112 10114 10116 10116 10115 10115 10115 10115 10116 10116 10116 10115 10113
9973 9974 9972 9968 9968 9967 9964 9965 9967 9965 9963 9962 9961 9962 9963 9962 9963 9966 9968 9966 9966 9968 9971 9974 9979 9982 9984 9986 9989 9993 9997 10000 10001 10000 9998 9998 10001 10003 10004 10009 10015 10019 10025 10032 10039 10041 10040 10041 10044 10049 10052 10056 10061 10065 10068 10070 10071 10073 10078 10082 10083 10084 10087 10088 10087 10089 10090 10091 10093 10094 10094 10096 10098 10100 10100 10099 10099 10100 10100 10099 10099 10100 10100 10099 10097
9958 9958 9955 9953 9953 9953 9950 9951 9951 9949 9948 9948 9946 9946 9947 9946 9946 9950 9953 9950 9948 9951 9953 9957 9962 9965 9965 9969 9973 9977 9981 9986 9985 9981 9980 9982 9984 9987 9989 9993 9996 10000 10004 10009 10016 10023 10026 10027 10031 10036 10039 10042 10046 10049 10052 10053 10055 10058 10062 10065 10066 10067 10069 10069 10070 10072 10074 10076 10077 10077 10079 10082 10084 10084 10083 10082 10083 10083 10083 10082 10083 10084 10084 10083 10081
9945 9943 9939 9937 9938 9938 9937 9936 9934 9932 9931 9932 9931 9931 9932 9931 9930 9934 9938 9935 9932 9934 9938 9942 9945 9946 9946 9952 9958 9960 9964 9969 9966 9961 9963 9967 9968 9970 9974 9977 9979 9982 9986 9988 9994 10004 10010 10013 10017 10022 10024 10027 10030 10034 10036 10039 10040 10043 10046 10049 10051 10052 10051 10052 10054 10056 10057 10058 10059 10061 10064 10067 10067 10067 10066 10065 10066 10066 10066 10066 10066 10067 10067 10066 10064
9930 9927 9923 9921 9923 9922 9922 9921 9918 9916 9915 9915 9915 9916 9916 9915 9914 9916 9920 9921 9918 9918 9921 9926 9930 9929 9930 9936 9941 9943 9947 9951 9947 9943 9946 9949 9951 9954 9958 9960 9962 9966 9968 9969 9976 9987 9995 9998 10001 10006 10008 10011 10016 10019 10021 10024 10025 10027 10030 10033 10036 10036 10034 10034 10037 10038 10040 10042 10044 10047 10049 10050 10050 10050 10049 10049 10050 10051 10050 10050 10050 10050 10050 10049 10047
9916 9913 9908 9907 9908 9907 9907 9906 9904 9902 9902 9900 9900 9901 9901 9901 9899 9898 9901 9905 9907 9905 9905 9909 9914 9915 9916 9920 9925 9928 9932 9934 9932 9928 9929 9931 9934 9937 9941 9944 9947 9951 9951 9953 9961 9973 9981 9984 9987 9990 9993 9997 10001 10003 10006 10009 10010 10010 10012 10016 10020 10020 10018 10017 10019 10021 10024 10028 10031 10033 10034 10034 10034 10034 10035 10035 10036 10036 10035 10035 10035 10035 10034 10032 10031
9901 9899 9895 9894 9894 9893 9892 9892 9890 9889 9888 9886 9886 9886 9886 9887 9887 9884 9884 9888 9892 9894 9893 9893 9897 9900 9903 9907 9911 9915 9916 9917 9916 9915 9915 9916 9918 9921 9923 9926 9932 9935 9937 9941 9950 9961 9966 9968 9972 9976 9978 9980 9984 9986 9989 9993 9993 9992 9994 9998 10002 10003 10003 10002 10003 10006 10009 10013 10015 10017 10018 10018 10019 10020 10020 10020 10021 10021 10020 10020 10020 10019 10018 10017 10015
9887 9885 9883 9882 9881 9880 9878 9878 9876 9875 9874 9873 9873 9873 9873 9873 9874 9873 9871 9872 9875 9879 9880 9880 9882 9887 9891 9894 9897 9900 9901 9901 9899 9899 9900 9902 9905 9906 9906 9909 9916 9922 9926 9932 9942 9949 9950 9952 9957 9961 9962 9963 9966 9968 9972 9976 9976 9975 9977 9980 9983 9987 9988 9988 9988 9991 9994 9997 9999 10001 10002 10003 10004 10005 10005 10005 10005 10005 10005 10006 10005 10004 10003 10001 9999
9874 9872 9870 9869 9868 9866 9865 9864 9863 9861 9861 9860 9861 9861 9861 9860 9860 9860 9859 9859 9860 9862 9866 9868 9871 9875 9879 9882 9882 9884 9886 9887 9885 9884 9884 9887 9891 9893 9892 9895 9904 9911 9915 9921 9929 9934 9934 9935 9940 9944 9946 9947 9949 9949 9953 9957 9959 9959 9961 9963 9966 9970 9972 9972 9974 9977 9980 9982 9984 9985 9986 9988 9989 9990 9990 9990 9989 9990 9990 9991 9990 9989 9988 9986 9983
9861 9859 9857 9856 9855 9853 9853 9853 9852 9851 9850 9849 9848 9848 9848 9848 9847 9847 9847 9847 9847 9848 9851 9855 9859 9863 9868 9870 9869 9869 9872 9874 9874 9872 9871 9872 9876 9879 9881 9886 9893 9897 9901 9907 9914 9918 9920 9921 9923 9926 9929 9931 9932 9932 9933 9937 9941 9944 9946 9949 9951 9953 9955 9957 9960 9963 9965 9967 9968 9970 9971 9972 9973 9973 9973 9973 9974 9974 9975 9976 9975 9974 9973 9971 9969
9848 9847 9845 9843 9842 9841 9841 9842 9841 9839 9838 9837 9836 9836 9836 9836 9836 9835 9835 9835 9836 9837 9839 9842 9846 9850 9855 9858 9857 9857 9859 9860 9862 9863 9862 9861 9862 9866 9872 9877 9880 9881 9885 9892 9899 9905 9908 9909 9909 9909 9910 9912 9914 9914 9914 9918 9923 9928 9932 9934 9935 9937 9939 9943 9947 9948 9950 9951 9953 9954 9956 9957 9957 9958 9958 9958 9959 9959 9960 9960 9960 9959 9958 9956 9955
9837 9836 9834 9831 9830 9830 9830 9829 9828 9827 9826 9825 9825 9825 9824 9824 9825 9825 9824 9824 9825 9826 9827 9830 9833 9836 9840 9843 9846 9847 9847 9848 9850 9852 9852 9851 9853 9856 9860 9862 9864 9866 9870 9876 9883 9891 9896 9897 9895 9893 9892 9893 9895 9896 9897 9900 9905 9911 9916 9919 9921 9924 9927 9931 9933 9934 9935 9936 9938 9939 9940 9941 9942 9942 9943 9943 9944 9945 9945 9944 9944 9944 9943 9942 9941
9826 9825 9823 9821 9820 9819 9818 9817 9816 9815 9815 9815 9814 9813 9813 9813 9813 9814 9814 9814 9815 9816 9817 9818 9821 9824 9826 9829 9833 9836 9836 9837 9838 9839 9839 9840 9844 9845 9845 9846 9849 9853 9856 9861 9869 9878 9883 9883 9881 9878 9876 9876 9878 9880 9881 9883 9888 9894 9900 9905 9909 9913 9916 9918 9919 9921 9921 9923 9923 9924 9925 9926 9927 9928 9928 9929 9929 9930 9929 9929 9929 9929 9928 9928 9926
9815 9814 9813 9811 9810 9809 9807 9806 9805 9805 9805 9805 9804 9803 9802 9802 9802 9803 9804 9804 9805 9805 9806 9808 9810 9813 9815 9816 9820 9823 9825 9825 9825 9825 9827 9829 9831 9831 9830 9833 9838 9843 9845 9849 9856 9862 9866 9868 9868 9864 9862 9862 9862 9862 9863 9867 9873 9881 9888 9893 9898 9901 9902 9903 9905 9906 9908 9909 9910 9911 9912 9913 9913 9913 9913 9914 9914 9914 9914 9914 9914 9914 9913 9913 9912
9805 9804 9803 9801 9800 9799 9797 9796 9795 9795 9795 9794 9794 9793 9792 9792 9792 9792 9793 9794 9794 9795 9796 9798 9800 9802 9803 9805 9807 9810 9812 9813 9813 9814 9816 9818 9819 9819 9819 9822 9828 9833 9836 9839 9842 9846 9850 9853 9852 9849 9847 9846 9844 9845 9849 9857 9864 9871 9877 9882 9886 9887 9887 9887 9889 9891 9893 9894 9896 9897 9898 9898 9899 9899 9899 9900 9899 9899 9899 9899 9899 9899 9898 9898 9898
9796 9794 9793 9792 9790 9789 9787 9786 9786 9785 9785 9785 9784 9784 9783 9782 9782 9782 9783 9784 9784 9785 9786 9787 9789 9790 9792 9794 9796 9798 9799 9800 9802 9803 9805 9806 9807 9808 9809 9812 9817 9821 9824 9827 9829 9832 9835 9837 9836 9834 9833 9831 9832 9837 9845 9853 9859 9863 9867 9870 9872 9872 9872 9872 9874 9876 9877 9879 9881 9882 9883 9884 9884 9884 9885 9885 9884 9885 9885 9885 9886 9886 9885 9884 9884
9787 9786 9784 9783 9782 9780 9778 9777 9776 9776 9776 9776 9775 9775 9774 9773 9773 9773 9773 9774 9774 9775 9776 9777 9778 9779 9781 9783 9785 9786 9788 9789 9791 9792 9794 9795 9796 9798 9800 9803 9806 9809 9813 9815 9817 9820 9822 9824 9824 9823 9823 9824 9829 9836 9843 9847 9850 9852 9854 9855 9856 9858 9859 9859 9860 9861 9862 9863 9865 9866 9867 9868 9869 9869 9870 9870 9870 9870 9871 9872 9872 9872 9872 9871 9871
9779 9778 9776 9774 9773 9771 9770 9768 9767 9767 9766 9766 9766 9766 9765 9765 9764 9764 9764 9764 9765 9765 9766 9767 9768 9769 9770 9772 9774 9776 9778 9779 9780 9782 9783 9784 9786 9788 9791 9794 9796 9798 9801 9804 9806 9808 9810 9812 9813 9814 9815 9819 9826 9831 9833 9834 9835 9836 9838 9839 9841 9843 9845 9845 9845 9846 9847 9849 9851 9852 9853 9853 9854 9854 9855 9855 9856 9856 9857 9857 9858 9858 9858 9858 9857
9771 9770 9768 9766 9765 9763 9762 9760 9759 9758 9757 9757 9757 9756 9756 9756 9756 9755 9755 9755 9756 9756 9756 9757 9758 9759 9760 9762 9763 9765 9767 9769 9770 9771 9772 9774 9775 9777 9780 9783 9785 9788 9790 9793 9795 9797 9799 9801 9803 9805 9808 9812 9814 9815 9816 9818 9819 9821 9823 9825 9827 9829 9830 9831 9832 9833 9835 9836 9837 9838 9838 9839 9839 9840 9840 9841 9841 9841 9842 9842 9843 9843 9843 9843 9843
9763 9762 9760 9759 9757 9755 9754 9752 9751 9750 9749 9748 9748 9748 9747 9747 9747 9746 9746 9746 9746 9747 9747 9748 9749 9750 9751 9752 9753 9755 9757 9759 9760 9761 9762 9764 9765 9766 9768 9771 9774 9777 9780 9782 9784 9786 9787 9789 9791 9794 9797 9799 9800 9801 9803 9805 9806 9808 9811 9813 9814 9815 9817 9818 9819 9821 9822 9823 9824 9824 9824 9825 9825 9826 9827 9827 9827 9828 9828 9827 9828 9828 9828 9828 9828
9756 9754 9753 9751 9749 9748 9746 9745 9743 9742 9741 9740 9740 9739 9739 9738 9738 9738 9738 9738 9737 9738 9738 9739 9739 9741 9742 9742 9744 9745 9747 9748 9750 9751 9753 9754 9755 9757 9758 9760 9763 9766 9768 9771 9773 9775 9776 9778 9780 9783 9785 9787 9788 9790 9792 9794 9796 9798 9799 9800 9801 9803 9804 9806 9808 9809 9809 9810 9810 9810 9810 9811 9812 9812 9814 9814 9814 9815 9814 9813 9814 9814 9814 9814 9813
9748 9746 9745 9744 9742 9741 9739 9738 9736 9735 9734 9733 9732 9731 9731 9730 9730 9729 9729 9729 9729 9729 9729 9730 9731 9732 9733 9734 9735 9736 9737 9738 9740 9741 9743 9745 9746 9747 9749 9751 9752 9755 9758 9760 9762 9764 9766 9767 9770 9772 9774 9776 9778 9779 9782 9784 9785 9786 9788 9789 9790 9792 9793 9795 9796 9797 9797 9797 9798 9797 9798 9799 9799 9800 9801 9801 9801 9801 9801 9800 9800 9801 9800 9800 9799
9740 9739 9737 9736 9735 9733 9732 9731 9729 9728 9727 9725 9725 9724 9723 9723 9722 9722 9721 9721 9721 9721 9721 9721 9722 9722 9723 9725 9726 9727 9728 9729 9730 9732 9733 9735 9736 9738 9739 9741 9742 9744 9746 9749 9751 9753 9755 9757 9759 9761 9763 9765 9767 9769 9771 9772 9774 9775 9777 9778 9779 9781 9782 9783 9784 9785 9785 9786 9786 9786 9787 9787 9787 9788 9788 9788 9788 9788 9787 9787 9788 9787 9786 9786 9785
9734 9732 9730 9729 9727 9726 9725 9723 9722 9721 9720 9719 9718 9717 9716 9716 9715 9715 9714 9714 9713 9713 9713 9713 9713 9714 9715 9716 9717 9718 9719 9720 9721 9723 9724 9726 9727 9729 9730 9731 9733 9734 9736 9738 9740 9743 9745 9747 9748 9750 9752 9754 9756 9758 9759 9761 9763 9764 9766 9767 9769 9770 9771 9772 9773 9774 9774 9774 9774 9775 9775 9775 9775 9776 9775 9775 9775 9775 9775 9774 9774 9773 9772 9772 9772
9727 9725 9724 9722 9720 9719 9718 9716 9715 9714 9713 9712 9711 9710 9709 9708 9708 9708 9707 9707 9706 9706 9706 9706 9705 9706 9706 9707 9708 9710 9711 9712 9713 9714 9715 9717 9718 9720 9721 9722 9724 9725 9726 9728 9730 9732 9734 9736 9738 9740 9742 9744 9745 9747 9749 9750 9752 9754 9755 9756 9758 9759 9760 9760 9761 9761 9761 9762 9762 9762 9763 9763 9763 9763 9763 9763 9763 9763 9762 9761 9761 9760 9760 9759 9759